Regional Weather Roundup
Issued by NWS Sterling, VA

Home | Current Version | Previous Version | Graphics & Text | Print | Product List | Glossary On
Versions: 1 2 3 4 5 6 7 8 9 10 11 12 13 14 15 16 17 18 19 20 21 22 23 24 25 26 27 28 29 30 31 32 33 34 35 36 37 38 39 40 41 42 43 44 45 46 47 48 49 50
000
ASUS41 KLWX 031710
RWRLWX

REGIONAL WEATHER ROUNDUP
NATIONAL WEATHER SERVICE BALTIMORE MD/WASHINGTON DC
100 PM EDT SUN MAY 03 2015

Note: "FAIR" indicates few or no clouds below 12,000 feet
with no significant weather and/or obstructions to visibility.
 TC=TEMPERATURE CELSIUS

 * =Non NWS site. Station does not report precipitation (e.g. rain,
    snow, etc.), thunder, or fog.

DCZ001-MDZ009-015-VAZ040>042-051-053>054-031800-
WASHINGTON METRO

CITY           SKY/WX    TMP DP  RH WIND       PRES   REMARKS
WASHINGTON NAT MOSUNNY   78  45  30 SE3       30.13S
DULLES         MOSUNNY   78  42  27 NW3       30.13F
ANDREWS AFB    SUNNY     77  40  25 NW10      30.12F
FT BELVOIR     MOSUNNY   78  40  26 VRB2      30.12F
QUANTICO       MOSUNNY   75  47  36 S6        30.13F
COLLEGE PARK*  MOSUNNY   77  37  24 N3        30.12S
LEESBURG*      SUNNY     77  45  31 SW5G17    30.14S
MANASSAS*      PTSUNNY   77  39  25 N5        30.13F
GAITHERSBURG*  SUNNY     75  43  31 W12       30.16F

$$

MDZ006>007-011-014-031800-
BALTIMORE METRO

CITY           SKY/WX    TMP DP  RH WIND       PRES   REMARKS
BWI AIRPORT    MOSUNNY   78  43  28 VRB5G17   30.10F
MD SCIENCE CTR   N/A     78  39  24 MISG      30.10F
MARTIN STATE   MOSUNNY   75  50  41 SE8       30.12F
ANNAPOLIS      MOSUNNY   67  52  58 SE12      30.11F
FORT MEADE*    SUNNY     77  37  24 SW3       30.13F

$$

MDZ012-015-019>023-031800-
MARYLAND EASTERN SHORE

CITY           SKY/WX    TMP DP  RH WIND       PRES   REMARKS
OCEAN CITY     SUNNY     64  53  67 S5        30.12S
SALISBURY      SUNNY     77  44  30 NW9       30.10F
BAY BRIDGE AP*   N/A    N/A N/A N/A W5        30.12F
CAMBRIDGE*     SUNNY     77  46  33 N6        30.11F
EASTON*        SUNNY     77  46  33 N6        30.15F

$$

MDZ017>025-031800-
SOUTHERN MARYLAND

CITY           SKY/WX    TMP DP  RH WIND       PRES   REMARKS
PATUXENT RIVER MOSUNNY   74  50  42 NE6       30.12F
ST INIGOES     PTSUNNY   74  49  41 SW6       30.12F
LEONARDTOWN*   SUNNY     77  36  22 N6        30.14S

$$

MDZ003>005-031800-
NORTH CENTRAL MARYLAND

CITY           SKY/WX    TMP DP  RH WIND       PRES   REMARKS
FREDERICK*     MOSUNNY   81  34  18 W10       30.15F
HAGERSTOWN APT SUNNY     76  42  29 SW8       30.11F
WESTMINSTER*   SUNNY     75  34  22 S3        30.13F

$$

MDZ501>502-031800-
WESTERN MARYLAND

CITY           SKY/WX    TMP DP  RH WIND       PRES   REMARKS
OAKLAND*       PTSUNNY   64  41  42 W7        30.20S
CUMBERLAND*    MOSUNNY   73  39  29 W6        30.16F

$$

VAZ025>031-031800-
SHENANDOAH VALLEY

CITY           SKY/WX    TMP DP  RH WIND       PRES   REMARKS
WINCHESTER*    MOSUNNY   77  32  19 SW7       30.13F
FRONT ROYAL*   CLOUDY    73  45  35 SE3       30.13F
LURAY*         FAIR      77  45  31 SE5       30.15F
NEW MARKET*    PTSUNNY   74  44  34 SE3       30.13F
STAUNTON*      SUNNY     74  37  26 W7        30.19S
WAYNESBORO*    FAIR      71  38  30 CALM      30.18F

$$

WVZ021-048>050-054>055-031800-
EASTERN WEST VIRGINIA PANHANDLE

CITY           SKY/WX    TMP DP  RH WIND       PRES   REMARKS
MARTINSBURG    PTSUNNY   77  41  27 VRB7      30.12F
PETERSBURG*    PTSUNNY   74  35  24 CALM      30.15F

$$

VAZ036>039-050-031800-
CENTRAL FOOTHILLS

CITY           SKY/WX    TMP DP  RH WIND       PRES   REMARKS
CHARLOTTESVILL MOSUNNY   76  40  27 VRB6      30.15S
CULPEPER*      NOT AVBL
ORANGE*        PTSUNNY   77  43  29 W5        30.16S
GORDONSVILLE*  PTSUNNY   75  40  28 N5        30.14F
WARRENTON*     CLOUDY    75  49  39 W7        30.14S

$$

VAZ055>057-031800-
NORTH AND CENTRAL PIEDMONT

CITY           SKY/WX    TMP DP  RH WIND       PRES   REMARKS
FREDERICKSBRG* MOSUNNY   80  41  24 W9        30.12F
STAFFORD*      MOSUNNY   75  38  25 NW3       30.17F

$$

NCZ024-NYZ072-PAZ021-071-VAZ022-071-031800-
OTHER REGIONAL OBSERVATIONS

CITY           SKY/WX    TMP DP  RH WIND       PRES   REMARKS
NEW YORK CITY  SUNNY     77  36  22 CALM      30.10F
PHILADELPHIA   MOSUNNY   76  39  26 E5        30.10F
PITTSBURGH     PTSUNNY   71  41  33 W7        30.13F
ROANOKE        PTSUNNY   72  37  28 VRB6      30.20F
RICHMOND       PTSUNNY   78  36  21 VRB3      30.15S
RALEIGH        MOSUNNY   75  44  33 SW3       30.19F

$$

ANZ530>537-031800-
MARINE OBSERVATIONS

STATION/POSITION TIME  TEMP    WIND        PRES
                       AIR SEA DIR/SP/G
                 (UTC) (F)     (DEG/KT/KT) (MB)
THOMAS PT LIGHT  1700   65 58  140/  8/  8 1020.3F
BALT KEY BRIDGE  1600   65     120/  5/  7 1019.7F
COVE POINT       1600   63     360/  3/  4 1021.1R
LEWISETTA        1600   73 61              1020.2R
SOLOMONS ISLAND  1600      59                N/A
PINEY POINT      1600          320/  9/  9   N/A

$$



USA.gov is the U.S. government's official web portal to all federal, state and local government web resources and services.